TimePST,TemperatureF,Dew PointF,Humidity,Sea Level PressureIn,VisibilityMPH,Wind Direction,Wind SpeedMPH,Gust SpeedMPH,PrecipitationIn,Events,Conditions,WindDirDegrees,DateUTC
12:15 AM,42.8,23.0,46,30.24,10.0,Calm,Calm,-,N/A,,Clear,0,2013-01-04 08:15:00
12:35 AM,42.8,23.0,46,30.24,10.0,East,6.9,-,N/A,,Clear,100,2013-01-04 08:35:00
12:55 AM,41.0,23.0,49,30.23,10.0,East,6.9,-,N/A,,Clear,100,2013-01-04 08:55:00
1:15 AM,41.0,23.0,49,30.23,10.0,ESE,8.1,-,N/A,,Clear,110,2013-01-04 09:15:00
4:15 AM,44.6,23.0,43,30.23,10.0,Calm,Calm,-,N/A,,Clear,0,2013-01-04 12:15:00
4:35 AM,39.2,19.4,45,30.23,10.0,ESE,6.9,-,N/A,,Clear,110,2013-01-04 12:35:00
4:55 AM,39.2,21.2,49,30.23,10.0,ESE,3.5,-,N/A,,Clear,110,2013-01-04 12:55:00
5:15 AM,39.2,21.2,49,30.22,10.0,ESE,5.8,-,N/A,,Clear,110,2013-01-04 13:15:00
5:35 AM,39.2,23.0,52,30.23,10.0,ESE,6.9,-,N/A,,Clear,110,2013-01-04 13:35:00
5:55 AM,41.0,19.4,42,30.23,10.0,East,8.1,-,N/A,,Clear,100,2013-01-04 13:55:00
6:15 AM,39.2,21.2,49,30.23,10.0,East,8.1,-,N/A,,Clear,100,2013-01-04 14:15:00
6:55 AM,41.0,19.4,42,30.25,10.0,Calm,Calm,-,N/A,,Clear,0,2013-01-04 14:55:00
7:15 AM,42.8,19.4,39,30.25,10.0,Calm,Calm,-,N/A,,Clear,0,2013-01-04 15:15:00
7:35 AM,44.6,23.0,43,30.26,10.0,Calm,Calm,-,N/A,,Clear,0,2013-01-04 15:35:00
7:55 AM,41.0,23.0,49,30.26,10.0,Calm,Calm,-,N/A,,Clear,0,2013-01-04 15:55:00
8:15 AM,41.0,23.0,49,30.26,10.0,Calm,Calm,-,N/A,,Clear,0,2013-01-04 16:15:00
8:55 AM,44.6,23.0,43,30.26,10.0,ESE,8.1,-,N/A,,Clear,110,2013-01-04 16:55:00
9:15 AM,46.4,23.0,40,30.26,10.0,SE,5.8,-,N/A,,Clear,130,2013-01-04 17:15:00
9:35 AM,48.2,23.0,37,30.27,10.0,Calm,Calm,-,N/A,,Clear,0,2013-01-04 17:35:00
9:55 AM,50.0,26.6,40,30.27,10.0,SSW,3.5,-,N/A,,Clear,210,2013-01-04 17:55:00
10:15 AM,50.0,28.4,43,30.27,10.0,South,4.6,-,N/A,,Clear,180,2013-01-04 18:15:00
10:35 AM,50.0,28.4,43,30.27,10.0,WSW,4.6,-,N/A,,Clear,240,2013-01-04 18:35:00
10:55 AM,50.0,30.2,47,30.27,10.0,SW,5.8,-,N/A,,Clear,230,2013-01-04 18:55:00
11:15 AM,50.0,28.4,43,30.26,10.0,WSW,4.6,-,N/A,,Clear,250,2013-01-04 19:15:00
11:35 AM,51.8,28.4,41,30.26,10.0,SSW,4.6,-,N/A,,Clear,200,2013-01-04 19:35:00
11:55 AM,50.0,28.4,43,30.25,10.0,SSW,6.9,-,N/A,,Clear,210,2013-01-04 19:55:00
12:15 PM,51.8,26.6,38,30.24,10.0,SW,5.8,-,N/A,,Clear,220,2013-01-04 20:15:00
12:35 PM,51.8,26.6,38,30.24,10.0,Calm,Calm,-,N/A,,Clear,0,2013-01-04 20:35:00
12:55 PM,51.8,26.6,38,30.23,10.0,South,4.6,-,N/A,,Clear,170,2013-01-04 20:55:00
1:15 PM,51.8,26.6,38,30.22,10.0,Calm,Calm,-,N/A,,Clear,0,2013-01-04 21:15:00
1:35 PM,53.6,28.4,38,30.22,10.0,Calm,Calm,-,N/A,,Clear,0,2013-01-04 21:35:00
1:55 PM,53.6,30.2,41,30.21,10.0,West,3.5,-,N/A,,Clear,270,2013-01-04 21:55:00
2:15 PM,53.6,32.0,44,30.21,10.0,SW,3.5,-,N/A,,Clear,230,2013-01-04 22:15:00
2:35 PM,53.6,32.0,44,30.21,10.0,SW,4.6,-,N/A,,Clear,220,2013-01-04 22:35:00
2:55 PM,51.8,32.0,47,30.21,10.0,SW,5.8,-,N/A,,Clear,220,2013-01-04 22:55:00
3:15 PM,51.8,32.0,47,30.20,10.0,South,3.5,-,N/A,,Clear,180,2013-01-04 23:15:00
3:35 PM,51.8,32.0,47,30.20,10.0,Calm,Calm,-,N/A,,Clear,0,2013-01-04 23:35:00
3:55 PM,50.0,32.0,50,30.20,10.0,SSW,3.5,-,N/A,,Clear,210,2013-01-04 23:55:00
4:15 PM,50.0,32.0,50,30.20,10.0,Calm,Calm,-,N/A,,Clear,0,2013-01-05 00:15:00
4:35 PM,48.2,32.0,54,30.20,10.0,WSW,3.5,-,N/A,,Clear,240,2013-01-05 00:35:00
4:55 PM,46.4,32.0,57,30.20,10.0,WSW,3.5,-,N/A,,Clear,250,2013-01-05 00:55:00
5:15 PM,46.4,32.0,57,30.20,10.0,Calm,Calm,-,N/A,,Clear,0,2013-01-05 01:15:00
5:35 PM,46.4,32.0,57,30.19,10.0,Calm,Calm,-,N/A,,Clear,0,2013-01-05 01:35:00
5:55 PM,46.4,32.0,57,30.20,10.0,Calm,Calm,-,N/A,,Clear,0,2013-01-05 01:55:00
6:15 PM,46.4,32.0,57,30.21,10.0,North,3.5,-,N/A,,Clear,360,2013-01-05 02:15:00
6:35 PM,46.4,32.0,57,30.21,10.0,NNE,4.6,-,N/A,,Clear,20,2013-01-05 02:35:00
6:55 PM,46.4,32.0,57,30.21,10.0,ENE,4.6,-,N/A,,Clear,70,2013-01-05 02:55:00
7:15 PM,44.6,32.0,61,30.21,10.0,East,5.8,-,N/A,,Clear,80,2013-01-05 03:15:00
7:35 PM,44.6,32.0,61,30.22,10.0,East,4.6,-,N/A,,Clear,100,2013-01-05 03:35:00
7:55 PM,44.6,32.0,61,30.22,10.0,East,5.8,-,N/A,,Clear,90,2013-01-05 03:55:00
8:15 PM,44.6,32.0,61,30.22,10.0,East,4.6,-,N/A,,Clear,100,2013-01-05 04:15:00
8:35 PM,44.6,32.0,61,30.23,10.0,East,4.6,-,N/A,,Clear,100,2013-01-05 04:35:00
8:55 PM,44.6,32.0,61,30.24,10.0,East,5.8,-,N/A,,Clear,100,2013-01-05 04:55:00
9:15 PM,44.6,32.0,61,30.24,10.0,East,5.8,-,N/A,,Clear,100,2013-01-05 05:15:00
9:35 PM,44.6,32.0,61,30.24,10.0,East,6.9,-,N/A,,Clear,100,2013-01-05 05:35:00
9:55 PM,46.4,32.0,57,30.24,10.0,ESE,6.9,-,N/A,,Clear,110,2013-01-05 05:55:00
10:15 PM,42.8,32.0,66,30.24,10.0,East,6.9,-,N/A,,Clear,100,2013-01-05 06:15:00
10:35 PM,41.0,32.0,70,30.24,10.0,East,6.9,-,N/A,,Clear,100,2013-01-05 06:35:00
10:55 PM,42.8,32.0,66,30.24,10.0,East,5.8,-,N/A,,Clear,100,2013-01-05 06:55:00
11:15 PM,44.6,32.0,61,30.25,10.0,ESE,4.6,-,N/A,,Clear,110,2013-01-05 07:15:00
11:35 PM,44.6,32.0,61,30.24,10.0,East,6.9,-,N/A,,Clear,100,2013-01-05 07:35:00
11:55 PM,44.6,32.0,61,-9999,-9999.0,East,5.8,-,N/A,,Clear,100,2013-01-05 07:55:00